Regional Weather Roundup
Issued by NWS

Home | Current Version | Previous Version | Text Only | Print | Product List | Glossary On
Versions: 1 2 3 4 5 6 7 8 9 10 11 12 13 14 15 16 17 18 19 20 21 22 23 24 25 26 27 28 29 30 31 32 33 34 35 36 37 38 39 40 41 42 43 44 45 46 47 48 49 50
000
ASUS43 KDTX 272010
RWRMI
MICHIGAN HOURLY REGIONAL WEATHER ROUNDUP
NATIONAL WEATHER SERVICE DETROIT/PONTIAC MI
300 PM EST FRI FEB 27 2015

NOTE: "FAIR" INDICATES FEW OR NO CLOUDS BELOW 12,000 FEET WITH NO
SIGNIFICANT WEATHER AND/OR OBSTRUCTION TO VISIBILITY.

MIZ047>049-052>055-059>063-066>070-074>076-081>083-272100-
SOUTHEAST LOWER MICHIGAN

CITY           SKY/WX    TMP DP  RH WIND       PRES   REMARKS
ADRIAN         SUNNY     15  -1  49 VRB7      30.56S WCI   5
ALMA           PTSUNNY   17   2  51 W12       30.52S WCI   4
ANN ARBOR      MOSUNNY   17  -2  43 NW13      30.54R WCI   4
BAD AXE        SUNNY     13   2  59 W12       30.51R WCI   0
CARO           SUNNY     15   1  52 W9        30.52R WCI   3
DETROIT CITY   SUNNY     19  -3  38 CALM      30.54S
DETROIT        MOSUNNY   18  -2  41 VRB3      30.56S
FLINT          SUNNY     17   1  49 NW16      30.53S WCI   2
GROSSE ILE     SUNNY     18  -2  41 SW7       30.55S WCI   8
HILLSDALE      SUNNY     15  -4  42 W7        30.52S WCI   6
HOWELL         SUNNY     15  -2  47 W8        30.52S WCI   4

CITY           SKY/WX    TMP DP  RH WIND       PRES   REMARKS
JACKSON        SUNNY     15  -2  46 W10       30.53S WCI   2
LAMBERTVILLE   SUNNY     18  -4  38 W7        30.59R WCI   8
LANSING        SUNNY     17   1  49 W18       30.53F WCI   1
LAPEER         FAIR      16  -2  45 W9        30.52R WCI   5
MASON          SUNNY     17  -2  43 W5        30.52F WCI   9
MONROE         SUNNY     16  -4  41 CALM      30.56S
MT. CLEMENS    MOSUNNY   15   4  61 SE9       30.52S WCI   3
PONTIAC        MOSUNNY   16  -1  47 W10       30.50R WCI   4
PORT HOPE        N/A     13  -1  54 SW10G18   30.50S WCI   0
PORT HURON     SUNNY     16  -2  45 W6        30.54S WCI   7
TRI CITIES     SUNNY     16   2  54 SW16      30.52S WCI   1
TROY           SUNNY     21  -6  30 CALM      30.55R
SAGINAW HB     SUNNY     19   5  53 W15       30.52S WCI   5
$$
MIZ043>046-050>051-056>058-064>065-071>073-077>080-272100-
SOUTHWEST LOWER MICHIGAN

CITY           SKY/WX    TMP DP  RH WIND       PRES   REMARKS
BATTLE CREEK   CLOUDY    18   2  49 W13       30.53S WCI   5
BENTON HARBOR  SUNNY     15   4  61 W12       30.58S WCI   2
BIG RAPIDS     PTSUNNY   19   2  47 W15       30.47S WCI   5
COLDWATER      PTSUNNY   18  -1  43 W10       30.54S WCI   6
FREMONT        FAIR      18  -1  43 W10       30.52R WCI   6
HOLLAND        PTSUNNY   18   5  57 W15       30.56R WCI   4
GRAND RAPIDS   CLOUDY    17   6  62 W14       30.53S WCI   3
IONIA          MOCLDY    19   3  51 SW9       30.52S WCI   8
KALAMAZOO      CLOUDY    18   2  49 W13       30.55R WCI   5
LUDINGTON      PTSUNNY   17   3  55 SW13      30.53S WCI   3
MARSHALL       SUNNY     17  -1  46 W8        30.53S WCI   6
MOUNT PLEASANT PTSUNNY   18   2  50 SW9       30.49S WCI   7
MUSKEGON       PTSUNNY   17   3  54 W14       30.55S WCI   3
SOUTH HAVEN    PTSUNNY   19   3  51 W15       30.57R WCI   4
$$
MIZ016>042-272100-
NORTHERN LOWER MICHIGAN

CITY           SKY/WX    TMP DP  RH WIND       PRES   REMARKS
ALPENA         MIX PCPN  19  -1  41 W10       30.43F WCI   7
BEAVER ISLAND  SUNNY     12   2  64 SW15G21   30.45S WCI  -4
BELLAIRE       PTSUNNY   16   3  56 SW5       30.48R WCI   9
CADILLAC       PTSUNNY   16   2  55 SW13      30.41R WCI   2
CHARLEVOIX     CLOUDY    13   3  66 W6        30.50S WCI   3
FRANKFORT      PTSUNNY   15   5  66 W8        30.50R WCI   4
GAYLORD        MOSUNNY   12   2  64 W14       30.39S WCI  -3
GRAYLING       MOSUNNY   16   1  52 W10       30.42S WCI   3
HARBOR SPRINGS SUNNY     13   2  60 W9G18     30.46S WCI   1
HOUGHTON LAKE  MOSUNNY   16   1  51 SW10      30.43S WCI   4
MANISTEE       PTSUNNY   16   1  53 W8        30.51S WCI   5
OSCODA         SUNNY     19   2  47 SW13      30.45S WCI   6
PELLSTON       MOSUNNY   12   1  61 W12G22    30.46R WCI  -2
ROGERS CITY    SUNNY     18   2  50 W9        30.44S WCI   7
TRAVERSE CITY  PTSUNNY   16   4  59 W14       30.47S WCI   2
$$
MIZ007>008-015-272100-
EASTERN UPPER MICHIGAN

CITY           SKY/WX    TMP DP  RH WIND       PRES   REMARKS
KINROSS        SUNNY     18   1  49 S8        30.39S WCI   7
MACKINAC ISLAN CLOUDY    12   3  68 SW12G23   30.44S WCI  -2
NEWBERRY       SUNNY     13  -2  50 W3        30.39S
S. S. MARIE    SUNNY     16   0  49 W5        30.40S WCI   9
MUNISING         N/A     14   2  58 N3        30.41F
$$
MIZ004>006-011>014-085-272100-
CENTRAL UPPER MICHIGAN

CITY           SKY/WX    TMP DP  RH WIND       PRES   REMARKS
MANISTIQUE     SUNNY     15  -1  50 S7        30.42S WCI   5
ESCANABA       SUNNY     16  -6  38 S9        30.44S WCI   4
MENOMINEE      SUNNY     18  -2  41 W8        30.45S WCI   7
SAWYER-GWINN   SUNNY     18  -2  41 W6        30.34F WCI   9
$$
MIZ001>003-009>011-084-272100-
WESTERN UPPER MICHIGAN

CITY           SKY/WX    TMP DP  RH WIND       PRES   REMARKS
IRON MOUNTAIN  SUNNY     19  -3  38 W5        30.36F WCI  12
HOUGHTON       SUNNY     10  -3  55 W17       30.35F WCI  -8
COPPER HARBOR    N/A     16  -3  43 NW8G17    30.37S WCI   5
IRONWOOD       SUNNY     12  -2  52 W14       30.36S WCI  -3
$$

ABBREVIATIONS USED IN REMARKS
   TC - TEMPERATURE IN CELSIUS
  WCI - WIND CHILL INDEX
   HX - HEAT INDEX
  VSB - VISIBILITY




USA.gov is the U.S. government's official web portal to all federal, state and local government web resources and services.